Baltimore Martin, MD

7:51 AM EDT on May 29, 2017 (GMT -0400)
Martin State

Weather History for KMTN - August, 2014

Change the Weather History Date:

Saturday, August 30, 2014

  Actual Average Record
Temperature  
Mean Temperature 74 °F -  
Max Temperature 80 °F 79 °F 93 °F (2010)
Min Temperature 68 °F 65 °F 59 °F (1999)
Cooling Degree Days 9    
Growing Degree Days 24 (Base 50)    
Moisture  
Dew Point 67 °F    
Average Humidity 80    
Maximum Humidity 88    
Minimum Humidity 61    
Precipitation  
Precipitation 0.00 in - - ()
Sea Level Pressure  
Sea Level Pressure 30.22 in    
Wind  
Wind Speed 8 mph (ESE)    
Max Wind Speed 13 mph    
Max Gust Speed -    
Visibility 10 miles    
Events      
Averages and records for this station are not official NWS values.
T = Trace of Precipitation, MM = Missing Value Source: NWS Daily Summary

Daily Weather History Graph

Daily Weather History Graph

Search for Another Location

Airport or City:

Trip Planner

Search our weather history database for the weather conditions in past years. The results will help you decide how hot, cold, wet, or windy it might be!

Date:

Astronomy

Aug. 30, 2014 Rise Set
Actual Time 6:32 AM EDT 7:39 PM EDT
Civil Twilight 6:04 AM EDT 8:07 PM EDT
Nautical Twilight 5:31 AM EDT 8:39 PM EDT
Astronomical Twilight 4:57 AM EDT 9:14 PM EDT
Moon 11:15 AM EDT (8/30) 10:14 PM EDT (8/30)
Length of Visible Light 14h 02m
Length of Day
13h 07m
Waxing Crescent, 23% of the Moon is Illuminated
Aug 30
Waxing Crescent
Sep 2
First Quarter
Sep 8
Full
Sep 15
Last Quarter
Sep 24
New

Hourly Weather History & Observations

Time (EDT) Temp. Heat Index Dew Point Humidity Pressure Visibility Wind Dir Wind Speed Gust Speed Precip Events Conditions
12:00 AM 69.8 °F - 64.4 °F 83% 30.24 in 10.0 mi ESE 10.4 mph - N/A   Clear
12:21 AM 69.8 °F - 64.4 °F 83% 30.25 in 10.0 mi ESE 12.7 mph - N/A   Clear
12:42 AM 69.8 °F - 64.4 °F 83% 30.25 in 10.0 mi ESE 10.4 mph - N/A   Clear
1:21 AM 69.8 °F - 64.4 °F 83% 30.25 in 10.0 mi SE 9.2 mph - N/A   Mostly Cloudy
1:39 AM 69.8 °F - 64.4 °F 83% 30.25 in 10.0 mi ESE 8.1 mph - N/A   Overcast
2:00 AM 69.8 °F - 64.4 °F 83% 30.25 in 10.0 mi SE 8.1 mph - N/A   Overcast
2:21 AM 69.8 °F - 64.4 °F 83% 30.24 in 10.0 mi ESE 8.1 mph - N/A   Overcast
2:42 AM 69.8 °F - 64.4 °F 83% 30.24 in 10.0 mi East 5.8 mph - N/A   Mostly Cloudy
3:00 AM 69.8 °F - 64.4 °F 83% 30.24 in 10.0 mi East 6.9 mph - N/A   Scattered Clouds
3:21 AM 69.8 °F - 64.4 °F 83% 30.24 in 10.0 mi East 5.8 mph - N/A   Scattered Clouds
3:42 AM 69.8 °F - 64.4 °F 83% 30.24 in 10.0 mi ESE 6.9 mph - N/A   Scattered Clouds
4:00 AM 69.8 °F - 64.4 °F 83% 30.23 in 10.0 mi East 4.6 mph - N/A   Clear
4:21 AM 68.0 °F - 64.4 °F 88% 30.23 in 10.0 mi East 5.8 mph - N/A   Scattered Clouds
4:42 AM 68.0 °F - 64.4 °F 88% 30.23 in 10.0 mi ESE 4.6 mph - N/A   Scattered Clouds
5:03 AM 68.0 °F - 64.4 °F 88% 30.23 in 10.0 mi ESE 5.8 mph - N/A   Scattered Clouds
5:21 AM 69.8 °F - 64.4 °F 83% 30.23 in 10.0 mi ESE 6.9 mph - N/A   Mostly Cloudy
5:30 AM 69.8 °F - 62.6 °F 78% 30.23 in 10.0 mi East 5.8 mph - N/A   Scattered Clouds
5:55 AM 69.8 °F - 64.4 °F 83% 30.24 in 10.0 mi ESE 6.9 mph - N/A   Mostly Cloudy
6:45 AM 69.8 °F - 64.4 °F 83% 30.25 in 10.0 mi ESE 5.8 mph - N/A   Mostly Cloudy
7:50 AM 71.6 °F - 66.2 °F 83% 30.25 in 10.0 mi ESE 6.9 mph - N/A   Overcast
8:45 AM 71.6 °F - 66.2 °F 83% 30.25 in 10.0 mi ESE 6.9 mph - N/A   Overcast
9:45 AM 73.4 °F - 66.2 °F 78% 30.25 in 10.0 mi SE 6.9 mph - N/A   Overcast
10:45 AM 73.4 °F - 66.2 °F 78% 30.26 in 10.0 mi SE 8.1 mph - N/A   Overcast
12:45 PM 75.2 °F - 66.2 °F 73% 30.24 in 10.0 mi SE 8.1 mph - N/A   Overcast
1:50 PM 78.8 °F - 66.2 °F 65% 30.22 in 10.0 mi SE 6.9 mph - N/A   Overcast
2:45 PM 80.6 °F 82.7 °F 66.2 °F 61% 30.20 in 10.0 mi ESE 11.5 mph - N/A   Overcast
3:45 PM 80.6 °F 83.2 °F 68.0 °F 65% 30.18 in 10.0 mi SE 9.2 mph - N/A   Mostly Cloudy
4:45 PM 80.6 °F 83.9 °F 69.8 °F 70% 30.16 in 10.0 mi SE 9.2 mph - N/A   Mostly Cloudy
5:45 PM 80.6 °F 83.9 °F 69.8 °F 70% 30.15 in 10.0 mi SE 5.8 mph - N/A   Mostly Cloudy
7:45 PM 78.8 °F - 73.4 °F 83% 30.14 in 10.0 mi SSE 5.8 mph - N/A   Overcast
8:45 PM 78.8 °F - 71.6 °F 78% 30.15 in 10.0 mi SE 10.4 mph - N/A   Clear
9:45 PM 78.8 °F - 73.4 °F 83% 30.16 in 10.0 mi SSE 6.9 mph - N/A   Clear
10:03 PM 78.8 °F - 71.6 °F 78% 30.16 in 10.0 mi SE 8.1 mph - N/A   Overcast
10:24 PM 78.8 °F - 71.6 °F 78% 30.16 in 10.0 mi SE 9.2 mph - N/A   Overcast
11:03 PM 77.0 °F - 71.6 °F 83% 30.15 in 10.0 mi SE 9.2 mph - N/A   Overcast
11:45 PM 77.0 °F - 71.6 °F 83% 30.15 in 10.0 mi SE 8.1 mph - N/A   Overcast